Temp
-7 -8 -8 -8 -8 -9 -9 -9 -9 -9 -9 -9 -9 -9 -9 -9 -10 -10 -10 -10 -10 -10 -10 -10 -10 -10 -10 -10 -10 -10 -10 -10 -10 -10 -10 -10 -10 -10 -10 -10 -10 -10 -10 -10 -10 -10 -10 -10 -10
-7 -8 -8 -8 -9 -9 -9 -9 -9 -10 -10 -10 -8 -9 -9 -10 -10 -10 -10 -10 -10 -10 -10 -10 -10 -10 -10 -10 -10 -11 -10 -10 -10 -10 -10 -10 -11 -11 -10 -10 -10 -10 -10 -10 -10 -10 -10 -10 -10
-8 -8 -8 -8 -8 -9 -9 -9 -9 -10 -10 -9 -9 -9 -10 -11 -11 -10 -11 -11 -10 -10 -10 -10 -10 -10 -10 -10 -11 -11 -10 -10 -10 -10 -10 -10 -10 -11 -10 -10 -10 -10 -10 -10 -10 -10 -10 -10 -10
-8 -8 -8 -8 -8 -9 -9 -9 -9 -9 -10 -10 -10 -10 -10 -10 -11 -10 -10 -10 -10 -10 -10 -10 -10 -10 -10 -10 -10 -11 -11 -11 -10 -10 -10 -10 -10 -11 -11 -10 -10 -10 -10 -10 -10 -10 -10 -10 -10
-9 -9 -8 -9 -9 -9 -9 -9 -9 -9 -10 -10 -10 -10 -9 -10 -10 -10 -10 -10 -10 -10 -10 -10 -10 -10 -10 -10 -10 -11 -11 -11 -11 -11 -10 -10 -11 -11 -11 -10 -10 -10 -11 -10 -10 -10 -10 -10 -10
-9 -9 -9 -9 -9 -9 -9 -9 -9 -9 -9 -9 -9 -9 -9 -9 -10 -9 -10 -10 -10 -10 -10 -10 -10 -10 -10 -10 -10 -11 -11 -11 -11 -11 -11 -10 -10 -11 -11 -11 -10 -11 -11 -11 -11 -10 -11 -11 -11
-9 -9 -9 -10 -10 -10 -10 -9 -9 -9 -9 -9 -9 -9 -9 -10 -10 -9 -10 -10 -10 -10 -10 -10 -10 -10 -10 -10 -10 -11 -11 -11 -11 -11 -11 -11 -11 -11 -11 -11 -11 -11 -11 -11 -11 -11 -11 -11 -11
-10 -9 -9 -10 -10 -11 -10 -10 -10 -9 -9 -9 -9 -10 -10 -10 -10 -10 -10 -10 -10 -10 -10 -10 -10 -10 -10 -10 -10 -11 -11 -11 -11 -11 -11 -11 -11 -11 -11 -11 -11 -11 -11 -11 -11 -11 -11 -11 -11
-9 -9 -9 -10 -10 -11 -11 -10 -10 -10 -9 -10 -10 -10 -10 -11 -10 -10 -10 -10 -10 -10 -10 -10 -10 -10 -10 -10 -11 -11 -12 -12 -12 -12 -11 -11 -11 -11 -11 -11 -11 -11 -11 -11 -11 -11 -11 -11 -11
-9 -9 -10 -10 -10 -10 -10 -9 -11 -10 -10 -10 -11 -11 -11 -10 -10 -10 -10 -10 -10 -10 -11 -10 -10 -10 -11 -11 -11 -11 -12 -12 -12 -12 -12 -12 -11 -11 -11 -11 -11 -11 -12 -12 -11 -12 -12 -12 -12
-9 -9 -10 -10 -10 -9 -9 -9 -9 -10 -11 -11 -11 -10 -10 -10 -10 -10 -11 -10 -10 -10 -10 -10 -10 -10 -11 -11 -12 -12 -12 -12 -12 -12 -12 -12 -11 -11 -11 -11 -11 -11 -12 -12 -12 -12 -12 -12 -12
-9 -9 -10 -10 -10 -10 -9 -10 -10 -10 -10 -11 -11 -10 -10 -9 -9 -9 -10 -11 -11 -11 -11 -11 -11 -11 -11 -11 -12 -12 -12 -12 -12 -13 -12 -12 -12 -12 -12 -12 -12 -11 -12 -12 -12 -12 -12 -12 -12
-9 -9 -10 -10 -9 -9 -9 -9 -9 -9 -10 -11 -10 -9 -9 -9 -9 -9 -10 -10 -11 -11 -11 -11 -11 -11 -11 -11 -12 -12 -12 -12 -12 -13 -13 -12 -12 -12 -12 -12 -12 -12 -12 -12 -12 -12 -12 -12 -12
-10 -9 -9 -10 -10 -10 -9 -9 -9 -10 -10 -9 -9 -9 -9 -9 -9 -9 -9 -10 -10 -11 -11 -11 -11 -11 -12 -11 -11 -11 -12 -12 -12 -13 -13 -13 -13 -12 -12 -12 -12 -12 -13 -12 -12 -12 -12 -12 -12
-10 -10 -9 -10 -10 -10 -9 -8 -9 -11 -10 -9 -10 -9 -9 -9 -9 -9 -10 -10 -10 -11 -11 -11 -11 -11 -11 -11 -11 -11 -11 -12 -12 -12 -13 -13 -13 -13 -13 -13 -13 -13 -13 -13 -13 -13 -13 -13 -13
-10 -9 -10 -11 -11 -10 -9 -8 -11 -11 -9 -9 -10 -9 -9 -9 -9 -10 -10 -10 -10 -10 -10 -11 -11 -11 -11 -11 -11 -11 -11 -11 -12 -12 -13 -13 -13 -13 -13 -13 -13 -13 -13 -13 -13 -13 -13 -13 -13
-10 -10 -10 -11 -11 -10 -9 -8 -11 -11 -10 -10 -10 -10 -9 -9 -9 -10 -10 -10 -11 -10 -10 -10 -10 -11 -11 -11 -11 -11 -11 -11 -11 -11 -12 -13 -13 -12 -13 -13 -13 -13 -13 -14 -14 -14 -14 -14 -14
-11 -10 -10 -11 -12 -10 -10 -9 -10 -12 -11 -11 -10 -10 -10 -10 -9 -10 -10 -10 -10 -10 -10 -10 -10 -11 -11 -11 -12 -12 -12 -12 -11 -12 -12 -13 -12 -13 -13 -13 -13 -13 -14 -14 -14 -14 -13 -13 -14
-10 -11 -11 -12 -12 -11 -10 -10 -11 -11 -11 -11 -11 -10 -10 -10 -10 -9 -9 -10 -10 -10 -10 -11 -10 -11 -11 -12 -12 -13 -12 -12 -12 -12 -12 -13 -13 -12 -12 -13 -13 -14 -13 -14 -14 -14 -14 -14 -14
-11 -11 -12 -12 -12 -12 -11 -10 -11 -11 -11 -11 -11 -11 -11 -11 -10 -10 -10 -10 -10 -10 -11 -11 -11 -11 -11 -11 -12 -12 -13 -12 -12 -12 -12 -13 -13 -13 -14 -13 -13 -13 -14 -14 -14 -14 -14 -14 -14
-12 -11 -12 -12 -13 -12 -12 -10 -11 -11 -11 -11 -11 -11 -11 -11 -11 -11 -11 -11 -10 -10 -11 -11 -12 -12 -11 -11 -12 -12 -12 -13 -13 -13 -13 -13 -13 -13 -14 -13 -13 -13 -13 -14 -14 -14 -14 -14 -14
-12 -13 -12 -12 -12 -12 -12 -11 -11 -12 -11 -11 -11 -12 -11 -11 -11 -11 -11 -11 -11 -11 -11 -12 -12 -13 -12 -11 -11 -12 -12 -13 -13 -14 -14 -13 -13 -13 -14 -14 -14 -14 -13 -13 -14 -14 -14 -14 -14
-12 -13 -13 -13 -13 -13 -12 -13 -11 -11 -11 -12 -12 -12 -12 -12 -11 -11 -11 -11 -11 -11 -11 -11 -13 -13 -13 -12 -12 -12 -12 -13 -13 -13 -13 -14 -13 -13 -13 -13 -14 -13 -13 -13 -14 -14 -14 -14 -14
-14 -14 -14 -14 -13 -13 -13 -14 -11 -12 -12 -12 -12 -12 -12 -12 -11 -11 -11 -11 -10 -11 -11 -11 -12 -13 -13 -13 -12 -12 -12 -13 -12 -13 -13 -13 -13 -14 -14 -14 -14 -14 -14 -14 -14 -14 -14 -14 -14
-14 -14 -14 -14 -14 -14 -14 -13 -13 -13 -12 -12 -12 -12 -12 -12 -13 -12 -12 -12 -11 -11 -12 -12 -12 -12 -12 -14 -14 -14 -13 -12 -12 -12 -12 -12 -12 -13 -13 -14 -14 -14 -14 -14 -14 -14 -14 -14 -14
-15 -15 -15 -15 -15 -15 -14 -14 -13 -13 -13 -13 -13 -14 -13 -13 -14 -14 -14 -13 -13 -13 -13 -14 -14 -14 -13 -13 -14 -14 -14 -13 -13 -11 -12 -12 -13 -12 -13 -13 -14 -14 -14 -14 -14 -14 -14 -14 -14
-15 -15 -16 -17 -16 -16 -14 -14 -14 -14 -15 -16 -17 -18 -18 -17 -17 -17 -17 -17 -17 -18 -17 -17 -16 -16 -15 -14 -11 -14 -14 -14 -14 -13 -13 -12 -12 -12 -13 -14 -14 -14 -14 -14 -14 -15 -14 -15 -14
-16 -16 -16 -17 -18 -17 -16 -16 -16 -16 -17 -19 -19 -20 -19 -19 -19 -20 -20 -19 -19 -19 -18 -19 -19 -17 -16 -15 -15 -14 -14 -14 -14 -14 -13 -13 -13 -13 -14 -14 -14 -14 -14 -15 -15 -15 -14 -15 -15
-17 -17 -18 -19 -18 -19 -19 -19 -18 -20 -21 -21 -22 -22 -21 -21 -21 -21 -21 -21 -20 -19 -18 -18 -18 -17 -18 -17 -17 -17 -15 -15 -15 -15 -14 -14 -14 -13 -14 -15 -14 -14 -14 -15 -15 -15 -15 -15 -15
-18 -18 -18 -20 -19 -20 -22 -20 -21 -22 -23 -23 -23 -23 -23 -22 -22 -21 -22 -21 -21 -20 -20 -20 -20 -19 -18 -17 -17 -17 -18 -16 -17 -14 -15 -14 -14 -15 -15 -15 -15 -15 -15 -15 -15 -15 -15 -15 -15
Height
5854 5855 5856 5857 5862 5861 5859 5856 5855 5854 5854 5853 5851 5853 5854 5855 5857 5857 5854 5855 5856 5855 5855 5854 5853 5854 5853 5850 5850 5850 5850 5849 5849 5848 5846 5845 5845 5844 5844 5844 5844 5845 5844 5844 5844 5844 5846 5846 5847
5851 5851 5852 5854 5858 5858 5857 5852 5851 5849 5849 5852 5853 5851 5851 5851 5852 5853 5854 5854 5853 5853 5852 5852 5852 5852 5852 5850 5849 5849 5849 5848 5848 5847 5845 5844 5843 5843 5842 5842 5843 5843 5843 5842 5843 5843 5844 5846 5846
5848 5847 5850 5851 5854 5853 5855 5849 5845 5847 5847 5848 5852 5852 5850 5848 5847 5848 5850 5850 5850 5850 5849 5850 5850 5849 5850 5850 5849 5848 5848 5847 5846 5846 5845 5843 5842 5841 5841 5841 5841 5841 5841 5841 5841 5841 5844 5846 5845
5845 5845 5848 5849 5850 5848 5850 5847 5843 5841 5841 5842 5844 5845 5845 5848 5847 5846 5846 5847 5846 5846 5844 5845 5847 5846 5847 5848 5848 5847 5847 5846 5845 5844 5844 5842 5841 5840 5840 5840 5840 5839 5839 5839 5839 5840 5843 5844 5844
5841 5842 5844 5844 5845 5845 5845 5844 5841 5841 5838 5838 5840 5841 5842 5844 5846 5846 5845 5842 5842 5842 5842 5841 5842 5843 5844 5845 5846 5845 5845 5844 5844 5843 5842 5841 5840 5839 5838 5838 5837 5838 5837 5838 5838 5838 5842 5843 5842
5837 5839 5840 5840 5842 5841 5839 5840 5840 5838 5837 5836 5836 5837 5840 5841 5841 5841 5841 5838 5836 5837 5836 5836 5836 5839 5841 5842 5842 5842 5842 5842 5842 5841 5840 5840 5839 5838 5837 5837 5836 5836 5836 5836 5836 5838 5840 5840 5840
5832 5835 5836 5837 5838 5836 5834 5835 5836 5836 5834 5835 5836 5837 5839 5837 5836 5834 5835 5834 5833 5832 5832 5833 5833 5835 5837 5839 5839 5838 5839 5839 5839 5838 5838 5837 5837 5836 5835 5835 5834 5834 5834 5833 5834 5836 5838 5838 5837
5827 5830 5832 5833 5834 5833 5831 5830 5829 5829 5831 5832 5830 5829 5831 5833 5833 5832 5832 5831 5830 5830 5829 5829 5830 5831 5832 5834 5835 5834 5835 5835 5836 5836 5835 5835 5834 5833 5833 5833 5832 5832 5831 5831 5831 5834 5835 5834 5834
5822 5826 5829 5827 5826 5829 5826 5826 5824 5826 5830 5828 5825 5825 5825 5827 5829 5829 5828 5827 5827 5825 5824 5825 5826 5826 5827 5828 5829 5829 5830 5831 5832 5832 5832 5831 5831 5830 5830 5829 5829 5829 5829 5828 5827 5830 5831 5831 5831
5817 5820 5823 5820 5820 5824 5820 5819 5820 5822 5826 5827 5824 5821 5822 5822 5823 5824 5826 5824 5821 5821 5819 5820 5820 5821 5821 5822 5823 5824 5825 5826 5827 5828 5827 5827 5827 5827 5826 5826 5826 5826 5825 5825 5824 5826 5826 5827 5826
5813 5815 5817 5816 5814 5816 5817 5817 5818 5818 5820 5820 5817 5814 5815 5816 5816 5819 5820 5819 5818 5819 5817 5815 5814 5815 5816 5817 5818 5819 5820 5821 5822 5823 5823 5822 5822 5822 5822 5821 5821 5821 5821 5820 5820 5821 5821 5822 5822
5807 5809 5810 5812 5808 5810 5810 5812 5811 5813 5814 5813 5811 5808 5808 5810 5812 5812 5812 5811 5810 5812 5812 5811 5811 5809 5809 5810 5811 5812 5814 5816 5817 5818 5818 5817 5817 5817 5817 5817 5816 5816 5816 5815 5815 5815 5816 5816 5816
5803 5803 5803 5807 5804 5803 5802 5805 5805 5809 5806 5804 5802 5800 5801 5801 5803 5804 5804 5804 5804 5804 5804 5804 5803 5804 5805 5804 5803 5805 5807 5809 5810 5812 5812 5811 5811 5812 5811 5811 5811 5811 5810 5810 5810 5809 5810 5810 5809
5797 5798 5800 5801 5800 5798 5796 5797 5797 5803 5797 5795 5796 5795 5796 5795 5794 5795 5797 5797 5796 5796 5796 5796 5797 5795 5796 5797 5798 5799 5799 5801 5802 5804 5806 5804 5804 5805 5805 5805 5805 5804 5804 5804 5804 5803 5803 5803 5803
5792 5792 5793 5795 5794 5793 5788 5789 5792 5791 5786 5788 5790 5789 5787 5787 5787 5788 5789 5790 5789 5788 5788 5790 5790 5790 5791 5792 5793 5793 5793 5794 5794 5794 5797 5797 5796 5797 5798 5798 5798 5797 5796 5797 5797 5796 5796 5796 5795
5783 5782 5787 5790 5784 5784 5781 5783 5785 5779 5778 5781 5783 5783 5782 5780 5781 5779 5778 5781 5782 5781 5780 5779 5781 5782 5781 5782 5783 5783 5783 5784 5785 5785 5788 5789 5786 5785 5787 5789 5789 5788 5789 5788 5788 5788 5788 5788 5788
5777 5775 5774 5777 5777 5776 5774 5773 5779 5774 5776 5775 5775 5776 5774 5772 5772 5773 5773 5772 5773 5773 5774 5774 5772 5773 5772 5772 5771 5772 5773 5774 5775 5775 5778 5779 5776 5771 5776 5777 5776 5779 5780 5779 5779 5779 5779 5779 5779
5766 5763 5766 5770 5776 5768 5770 5765 5765 5768 5767 5766 5765 5765 5766 5767 5767 5765 5766 5768 5768 5765 5764 5763 5763 5762 5762 5759 5759 5761 5762 5763 5764 5764 5765 5767 5764 5757 5760 5765 5765 5767 5769 5770 5770 5769 5769 5770 5769
5758 5760 5757 5764 5764 5762 5761 5761 5763 5762 5760 5762 5761 5758 5759 5760 5760 5761 5760 5759 5759 5759 5760 5757 5754 5753 5751 5749 5746 5745 5749 5751 5752 5752 5753 5756 5753 5751 5749 5754 5752 5756 5758 5759 5758 5758 5759 5760 5760
5753 5753 5755 5753 5755 5751 5753 5756 5754 5752 5753 5753 5753 5753 5751 5751 5752 5752 5751 5749 5747 5746 5745 5745 5747 5748 5744 5740 5738 5735 5733 5734 5737 5740 5741 5741 5741 5741 5741 5740 5738 5742 5745 5745 5746 5748 5748 5749 5750
5745 5743 5744 5742 5742 5743 5743 5744 5744 5744 5743 5743 5743 5744 5744 5743 5742 5742 5742 5740 5737 5733 5732 5733 5734 5736 5734 5727 5725 5723 5723 5723 5722 5725 5728 5729 5728 5730 5727 5727 5729 5728 5728 5730 5733 5735 5736 5738 5738
5734 5736 5733 5732 5730 5731 5730 5731 5735 5731 5729 5730 5732 5732 5732 5731 5730 5730 5729 5728 5726 5723 5720 5718 5719 5721 5723 5722 5716 5715 5715 5713 5712 5713 5713 5715 5714 5714 5715 5713 5715 5716 5718 5718 5720 5723 5723 5724 5726
5726 5725 5724 5723 5721 5719 5719 5716 5726 5719 5715 5715 5716 5716 5716 5715 5713 5711 5712 5709 5709 5708 5707 5706 5704 5705 5705 5705 5705 5702 5701 5700 5697 5697 5699 5700 5701 5702 5700 5702 5701 5702 5704 5702 5704 5707 5710 5712 5714
5714 5713 5712 5710 5709 5705 5716 5704 5708 5709 5708 5704 5700 5699 5699 5699 5699 5696 5696 5696 5692 5690 5689 5685 5686 5687 5686 5687 5688 5688 5688 5685 5682 5679 5680 5681 5683 5684 5684 5686 5686 5688 5691 5693 5694 5695 5697 5699 5701
5703 5701 5698 5696 5695 5693 5699 5689 5690 5696 5693 5689 5685 5682 5678 5676 5676 5676 5676 5674 5673 5670 5670 5666 5666 5667 5668 5669 5672 5672 5673 5670 5667 5663 5663 5664 5666 5666 5666 5667 5670 5674 5677 5679 5680 5682 5684 5685 5687
5692 5690 5686 5678 5681 5679 5679 5673 5677 5673 5671 5668 5662 5657 5654 5654 5653 5652 5649 5650 5647 5645 5645 5643 5642 5644 5646 5648 5648 5651 5652 5651 5641 5631 5633 5647 5651 5646 5644 5646 5651 5657 5662 5665 5666 5668 5670 5672 5672
5678 5676 5672 5663 5661 5655 5661 5658 5656 5653 5648 5643 5638 5632 5630 5630 5629 5626 5626 5626 5626 5623 5622 5621 5621 5625 5626 5628 5630 5629 5634 5633 5631 5636 5636 5629 5638 5623 5626 5625 5632 5639 5645 5649 5652 5654 5659 5659 5658
5660 5658 5654 5648 5640 5635 5637 5635 5633 5629 5625 5621 5620 5616 5611 5608 5608 5608 5605 5604 5607 5606 5606 5606 5606 5606 5609 5610 5611 5596 5609 5609 5614 5617 5616 5615 5615 5611 5609 5613 5619 5624 5630 5633 5635 5640 5643 5644 5645
5646 5642 5638 5632 5627 5619 5615 5615 5616 5610 5607 5604 5600 5596 5596 5594 5589 5591 5590 5590 5591 5591 5590 5590 5592 5593 5591 5591 5589 5590 5587 5594 5601 5601 5604 5601 5602 5600 5597 5602 5608 5611 5616 5619 5622 5624 5626 5629 5630
5628 5627 5621 5611 5609 5602 5592 5593 5595 5597 5592 5587 5582 5578 5578 5577 5576 5575 5576 5574 5577 5576 5574 5571 5570 5573 5575 5573 5576 5577 5577 5577 5576 5581 5586 5588 5588 5585 5585 5586 5591 5598 5602 5605 5607 5609 5613 5614 5616
Wind_Speed
17 19 19 17 15 9 11 19 18 18 18 18 23 20 22 15 17 22 19 18 20 24 26 29 33 26 16 12 11 13 14 14 16 19 20 17 15 14 14 14 13 13 12 12 13 12 10 9 6
17 18 19 18 16 12 15 22 24 23 22 20 20 17 16 16 18 20 21 23 27 29 31 35 36 29 17 13 11 13 13 13 15 18 19 18 15 14 14 14 14 13 13 13 14 13 11 7 7
18 18 17 15 13 13 16 25 29 26 27 28 26 26 17 17 23 23 23 26 31 32 36 38 37 30 18 14 12 13 14 14 15 17 18 18 16 15 15 15 14 13 13 14 14 13 10 8 10
19 17 16 13 13 16 14 25 31 32 32 28 28 26 22 20 24 28 30 31 33 35 37 39 36 31 25 19 14 13 15 16 16 17 18 18 17 15 15 16 15 14 14 14 15 12 8 9 10
19 19 18 16 16 18 15 21 29 32 37 37 34 28 29 22 23 28 33 39 42 38 40 36 36 35 29 22 18 15 15 16 17 18 18 18 17 16 14 15 15 14 13 12 12 11 9 8 10
21 19 17 16 14 14 17 21 24 29 36 40 40 37 33 27 27 21 19 23 30 34 36 33 34 34 32 25 20 17 18 18 18 18 20 19 17 16 15 14 14 14 13 13 13 14 11 10 12
26 22 19 15 13 16 21 23 24 27 32 33 35 35 32 26 22 28 23 21 24 28 31 34 32 34 34 30 23 20 19 19 19 20 20 21 19 16 17 16 14 15 16 16 15 15 13 12 17
29 24 19 14 14 17 23 27 30 30 26 27 29 31 31 27 26 24 22 21 22 26 27 30 33 33 35 34 25 21 19 20 21 21 22 22 21 19 17 18 18 18 18 19 20 17 14 16 19
28 23 18 20 21 17 26 26 32 33 26 28 32 33 32 29 28 27 24 21 20 21 23 27 29 31 34 34 28 23 21 21 24 23 23 22 22 21 19 18 19 20 21 22 22 21 19 20 21
23 17 14 22 22 19 26 24 27 29 27 27 32 37 37 35 33 29 25 26 23 24 22 24 26 31 32 33 30 27 25 23 24 25 23 24 23 21 20 20 19 20 22 22 23 22 21 22 22
21 12 17 19 20 15 17 21 20 20 23 27 32 33 29 28 29 26 26 28 30 30 33 26 26 27 30 31 31 31 31 27 26 26 26 25 25 21 22 21 20 21 23 24 24 24 23 23 23
24 19 18 15 23 18 15 16 19 17 18 24 28 30 32 27 24 24 26 28 33 33 31 32 27 27 31 32 34 35 35 33 30 29 28 27 27 24 21 21 20 22 24 25 26 26 25 25 25
23 21 22 16 21 20 21 18 20 12 19 24 27 26 25 27 25 24 23 25 28 34 30 30 30 31 32 34 37 38 37 37 32 32 30 30 29 28 26 26 25 27 26 26 25 25 26 28 28
26 23 22 19 19 23 24 22 19 10 24 27 24 26 28 27 26 25 22 23 24 27 32 33 33 35 35 38 38 38 40 41 37 34 33 35 34 31 31 30 31 31 30 29 29 27 26 27 28
26 27 26 22 22 22 28 22 16 17 29 25 23 26 30 29 27 25 22 20 24 27 32 35 39 41 41 40 39 40 41 40 43 39 38 40 42 37 36 36 34 34 33 33 32 30 28 28 30
29 29 25 21 29 30 26 18 17 28 28 26 25 24 27 31 29 26 26 18 22 27 32 36 40 41 44 46 44 44 44 45 43 42 44 44 49 43 42 40 40 39 37 37 37 35 33 31 31
30 33 33 32 35 32 31 28 19 28 27 28 27 30 30 28 31 28 30 25 24 24 27 33 37 38 45 49 51 48 48 48 48 47 48 50 54 57 47 44 46 40 41 40 40 39 35 34 35
37 39 37 34 29 37 31 35 33 25 28 31 31 32 32 30 30 31 30 32 31 30 30 31 34 36 39 45 49 51 51 52 51 52 49 53 63 69 41 45 48 45 42 43 43 44 44 41 38
40 37 38 31 31 36 37 38 34 35 34 30 32 36 36 36 37 36 32 34 35 33 34 36 38 37 39 44 47 48 47 52 55 55 55 59 61 63 48 54 52 56 42 44 46 49 48 44 41
41 42 36 35 33 40 36 37 32 33 35 37 39 37 36 36 37 37 37 38 43 44 43 41 39 39 43 46 50 52 50 51 54 57 59 61 62 61 60 61 53 48 52 50 51 50 51 48 43
41 44 40 42 38 38 41 47 38 38 37 41 41 41 42 42 45 49 50 48 47 48 50 51 45 40 44 48 52 55 56 54 54 53 55 59 62 62 63 63 59 55 61 56 48 55 54 52 50
48 42 47 46 47 46 44 54 45 42 46 47 46 44 46 49 50 52 54 59 55 53 54 53 54 50 46 50 55 56 57 60 60 57 54 55 59 61 60 63 63 63 59 57 63 61 60 55 52
48 45 43 44 44 47 51 52 54 57 59 56 54 55 55 57 61 63 65 65 64 61 59 61 57 55 55 55 57 59 57 61 64 63 63 62 60 61 63 60 67 60 60 64 62 53 63 58 54
39 41 42 45 48 55 52 53 63 58 57 59 62 64 64 68 71 70 70 72 74 75 73 68 63 62 62 63 58 58 60 64 70 64 61 59 60 66 66 65 65 64 66 65 61 54 59 56 60
42 45 47 51 53 56 53 61 61 58 63 69 73 76 79 74 72 73 75 76 80 83 77 74 74 71 69 64 62 57 60 66 70 63 60 61 61 64 68 67 67 64 60 62 63 62 62 63 60
47 50 52 53 56 58 61 69 69 72 75 76 75 76 78 79 78 78 79 81 81 84 79 71 73 76 76 72 65 64 63 65 74 57 68 59 56 64 75 74 67 63 63 61 63 57 59 59 55
48 47 49 54 57 61 67 69 70 72 73 71 71 72 73 76 78 81 80 75 67 68 64 62 58 65 67 63 63 71 67 63 75 62 60 51 55 38 63 69 66 62 63 65 66 65 66 65 60
49 50 54 58 60 66 70 72 74 74 74 70 69 72 76 78 76 71 70 67 62 60 60 53 52 53 54 66 62 46 63 70 70 65 58 62 47 44 38 54 56 56 60 62 64 61 59 59 56
49 52 57 61 65 69 73 74 74 73 69 66 64 68 70 70 69 68 69 64 60 60 64 61 55 54 57 58 55 51 41 56 78 62 61 49 50 54 45 48 52 57 60 62 63 62 61 58 57
56 56 61 66 71 74 72 73 70 62 61 62 66 65 63 61 59 64 64 60 59 60 63 64 61 57 57 59 56 56 54 50 41 51 52 54 41 40 37 43 57 60 61 61 58 59 60 62 63
Wind_Direction
275 272 271 267 256 235 230 248 248 247 237 218 212 239 264 281 309 312 320 307 301 301 298 301 308 308 311 319 325 321 316 305 308 314 320 314 298 282 282 277 272 268 268 267 266 268 266 260 239
273 270 270 271 266 243 230 253 259 248 238 245 248 220 257 285 293 300 302 297 301 299 297 298 298 301 304 310 324 328 316 302 302 308 313 311 293 281 280 280 277 274 270 269 268 266 263 251 195
269 272 273 271 267 243 219 249 257 259 254 258 257 265 245 266 282 279 285 289 296 300 294 291 288 293 301 301 315 328 322 306 300 301 306 310 291 278 274 274 271 267 266 264 264 263 252 201 204
268 269 274 278 273 260 227 238 254 261 266 265 266 261 265 235 264 275 276 286 284 284 286 282 280 284 296 296 304 317 322 313 299 298 301 307 293 276 272 270 266 266 265 262 259 253 225 196 221
271 271 274 275 270 266 257 242 250 257 260 261 264 262 267 263 252 261 269 271 269 270 272 276 275 274 283 286 293 307 314 315 305 296 294 299 296 278 270 270 265 262 262 258 252 245 231 208 240
269 272 277 273 264 265 263 254 257 259 262 270 271 277 280 279 287 270 294 267 265 264 261 269 268 267 275 278 281 294 307 309 312 296 292 291 293 280 266 265 265 258 253 257 260 256 245 225 238
266 267 274 278 264 262 261 269 270 271 274 274 285 295 299 286 287 273 286 277 264 264 259 261 263 263 268 273 274 283 295 306 308 303 290 289 286 286 273 262 259 258 256 255 257 258 255 248 245
264 267 264 280 268 265 268 273 274 273 276 283 285 290 289 285 285 290 293 281 275 264 260 261 262 264 267 271 269 274 285 297 302 301 294 288 285 280 281 268 258 251 252 256 258 257 258 251 248
263 273 269 271 265 255 273 274 279 280 289 286 286 289 288 287 284 280 287 285 287 268 271 268 264 265 265 268 266 268 277 286 297 298 293 282 282 281 276 277 271 260 253 252 252 256 254 260 262
267 274 267 260 267 262 260 271 271 281 288 285 285 287 288 284 278 280 280 274 277 284 269 271 276 266 262 263 264 269 274 279 291 294 293 283 276 280 277 273 272 272 263 258 261 259 258 259 259
260 258 255 257 259 265 262 274 279 280 278 280 284 288 293 293 291 287 275 269 276 281 284 278 265 269 266 269 269 270 274 275 279 287 288 283 275 272 277 273 273 273 269 266 263 262 263 265 265
261 267 262 251 260 262 254 250 261 270 280 272 278 284 292 299 300 300 292 273 265 267 273 276 276 273 268 268 268 269 270 272 272 280 283 284 275 268 267 270 272 276 274 269 266 268 268 268 267
264 257 254 244 250 258 252 250 252 264 264 262 269 278 288 295 300 298 293 285 274 261 257 264 268 272 274 272 265 266 268 268 267 270 276 278 277 268 269 271 273 274 274 274 271 269 269 270 270
261 263 260 261 250 250 257 249 261 232 246 259 268 280 286 288 289 291 295 284 277 267 254 250 258 260 261 266 271 271 267 265 267 261 269 271 273 269 268 272 275 274 273 272 272 273 273 274 275
260 258 262 259 256 254 259 270 262 248 250 269 265 274 277 281 281 284 278 276 267 266 261 255 255 263 266 267 269 273 275 266 263 254 262 264 266 265 266 267 272 275 273 273 271 271 274 279 281
255 259 251 245 244 243 263 271 250 256 264 269 269 269 279 287 286 282 277 271 264 264 262 260 256 256 261 265 264 262 266 268 265 263 262 261 264 257 261 263 268 270 274 274 273 273 277 280 282
254 257 250 225 236 245 257 265 247 254 265 269 274 274 271 275 286 279 279 271 261 262 265 270 269 262 258 259 264 262 261 263 264 264 261 263 261 258 252 257 258 263 269 272 273 274 276 277 282
250 251 254 250 231 252 248 262 261 246 256 261 268 273 275 275 275 277 277 278 278 273 263 258 263 266 263 261 262 265 263 263 262 263 261 261 259 255 248 252 256 255 262 267 272 272 273 276 278
258 254 256 259 260 249 256 263 268 276 275 276 274 275 280 281 277 276 283 292 289 278 268 259 257 258 263 261 260 260 262 261 261 261 260 257 263 274 264 271 255 253 257 261 265 268 273 273 274
262 264 265 265 270 270 269 262 271 273 277 280 280 281 283 289 288 288 294 294 298 291 281 272 269 266 263 259 259 260 257 255 255 257 260 261 259 260 263 261 249 249 251 255 255 263 269 269 271
262 264 269 268 267 270 275 264 274 275 280 279 282 287 289 285 291 291 295 298 293 287 285 283 272 266 260 261 257 254 259 259 256 255 256 259 261 259 258 258 258 249 242 250 253 260 263 269 268
258 261 265 270 271 273 274 266 273 279 281 284 285 286 285 287 289 289 288 291 290 286 281 279 280 275 262 261 266 264 264 259 260 259 255 254 255 256 255 258 261 261 258 259 252 255 259 264 267
266 269 271 272 275 274 275 286 273 277 279 283 285 286 286 286 287 282 279 281 282 279 278 273 271 269 266 264 263 264 264 266 262 261 259 257 256 258 259 254 255 258 257 256 248 256 258 258 262
269 271 275 276 277 274 281 288 271 278 283 286 287 290 290 289 287 284 277 274 275 276 274 269 264 265 265 267 266 264 263 264 265 259 255 259 259 256 253 252 254 253 251 253 262 260 266 263 270
273 279 281 281 280 282 280 283 285 283 284 284 286 287 287 284 280 274 271 270 268 268 264 262 262 262 259 260 263 262 263 264 267 264 259 257 259 264 260 248 247 250 251 254 257 260 262 266 267
274 277 282 287 287 288 289 288 293 294 292 291 287 285 281 278 272 268 266 266 266 265 264 260 258 256 258 256 256 256 258 257 261 275 252 257 261 264 258 250 242 244 247 252 255 253 264 266 264
281 279 281 285 288 287 292 292 291 291 288 282 277 275 274 273 272 272 272 273 269 264 257 256 260 254 252 255 259 262 254 251 261 259 266 249 256 239 246 235 237 240 247 250 254 255 255 262 260
284 286 288 290 288 289 293 293 292 287 282 277 272 271 272 271 274 275 274 271 268 269 269 273 278 266 253 253 246 267 247 250 249 261 258 261 239 238 232 241 240 242 248 252 257 259 252 261 258
287 287 287 285 283 283 284 283 283 279 278 279 279 279 279 281 279 277 275 274 274 271 272 271 265 262 270 267 276 269 255 259 252 258 255 237 244 225 246 247 245 248 251 254 256 258 258 258 256
287 286 284 280 283 281 278 278 280 280 280 280 280 280 276 277 278 280 275 275 269 266 270 275 277 272 265 266 268 270 268 250 268 235 237 239 230 223 221 230 245 247 248 251 255 257 258 262 262